User: anonymous   Login
Location: Unspecified
(0.0000°N, 0.0000°E)
Time: 09:18:29
(UTC+00:00)
Language:

COSMOS 2438 - Orbit

View from above orbital plane
View from above orbital plane
View from above satellite
View from above satellite

Ground track
Ground track

The orbit data is extracted from the following two-line orbital elements,

1 32955U 08025C   17268.87752020 +.00000005 +00000-0 -34791-4 0  9998
2 32955 082.5057 175.6424 0022232 060.5278 299.8014 12.43299340424034
Epoch (UTC): 25 September 2017 21:03:37
Eccentricity: 0.0022232
inclination: 82.5057°
perigee height: 1475 km
apogee height: 1510 km
right ascension of ascending node: 175.6424°
argument of perigee: 60.5278°
revolutions per day: 12.43299340
mean anomaly at epoch: 299.8014°
orbit number at epoch: 42403

The dashed part of the orbit path shows where the satellite is in the earth's shadow,  

DLR